GEFSNGP_500_meanwind_024.txt.gz
Wind_Speed
53 50 47 45 46 46 45 44 44 43 43 41 41 42 42 43 44 45 44 42 39 36 36 39 43 48 53 56 59 60 60 57 57 54 47 41 39 38 39 41 44 48 51 53
58 57 55 53 50 50 51 51 50 48 46 45 46 45 43 43 43 41 40 36 33 33 36 41 46 51 55 58 59 58 57 55 54 48 42 39 38 39 42 46 49 52 54 54
59 60 61 61 55 54 54 55 56 55 52 49 48 47 46 45 44 44 39 35 33 34 38 44 49 53 55 56 56 56 54 53 48 42 39 38 39 42 46 49 52 53 53 53
55 57 62 60 58 59 58 58 58 59 57 55 52 49 47 46 45 41 38 34 35 39 42 45 49 51 52 53 53 52 51 47 42 38 37 39 42 46 49 51 52 52 53 52
49 52 56 55 55 55 56 59 59 60 61 60 58 54 51 50 47 40 37 35 37 39 42 45 47 48 49 50 50 48 46 41 37 36 38 41 45 47 49 51 51 51 51 50
44 48 51 50 50 49 49 51 52 55 57 58 58 56 53 49 45 41 36 34 36 39 41 43 45 45 46 46 46 44 40 36 35 37 40 43 45 47 48 49 49 49 48 47
40 44 46 46 45 43 43 43 42 42 44 45 47 47 45 42 37 35 34 33 35 38 40 41 41 41 42 43 41 37 33 33 35 38 41 43 44 45 46 47 47 47 46 44
37 41 43 42 42 41 38 36 36 35 36 36 35 36 34 33 31 29 29 30 33 35 36 37 38 39 39 37 34 31 31 33 36 39 40 42 43 43 44 44 45 45 43 41
30 33 34 35 36 36 35 33 31 31 32 31 28 27 26 27 24 23 26 29 31 32 33 33 35 35 33 30 28 29 31 34 37 38 39 40 41 42 42 43 43 43 41 38
21 21 21 21 23 24 26 25 22 21 22 20 20 21 22 21 20 22 25 26 28 29 29 31 31 29 26 25 26 29 32 35 36 37 38 38 39 40 41 42 41 40 37 34
11 10 8 9 11 13 14 14 15 14 14 14 16 17 17 18 19 21 23 24 25 26 27 27 25 22 21 23 26 30 32 34 36 36 36 37 37 38 39 40 39 37 34 31
6 6 5 4 6 7 8 9 9 10 12 13 14 15 15 16 18 20 21 21 22 23 23 20 18 17 20 23 27 30 32 34 35 35 36 36 36 37 38 38 37 35 33 31
7 7 7 6 6 6 6 7 8 10 11 12 13 13 14 16 18 18 18 18 18 18 16 14 14 16 19 23 27 30 32 33 35 35 36 36 35 36 37 37 37 35 33 30
8 9 7 7 7 7 7 7 8 9 10 11 12 13 14 15 15 15 15 15 14 12 11 10 12 16 20 24 28 30 32 33 34 35 35 34 34 35 36 37 36 35 32 29
8 8 9 9 8 8 8 8 9 9 9 10 11 12 13 13 12 12 12 11 9 7 7 9 12 17 21 25 28 30 32 33 33 34 33 33 33 34 35 36 35 34 31 27
8 8 9 8 8 7 7 8 9 9 9 10 11 11 11 10 10 9 7 5 4 4 6 9 13 18 23 25 28 30 32 33 33 33 33 33 33 33 33 34 33 32 29 25
8 8 8 7 7 7 8 8 9 9 9 9 9 9 8 7 6 5 3 2 2 2 5 10 15 20 23 25 28 30 32 32 32 32 32 32 31 31 32 32 32 31 29 26
10 9 9 7 7 8 8 9 9 9 9 8 7 7 6 4 3 3 4 4 2 2 7 12 17 21 23 26 28 30 31 31 31 32 32 31 31 31 30 30 30 30 29 26
12 11 10 9 9 9 9 8 9 9 8 7 6 5 4 4 5 7 7 5 2 4 8 13 18 21 24 26 28 29 30 31 32 32 32 32 31 30 29 29 28 28 28 26
12 12 11 11 11 11 10 10 10 8 7 6 5 4 5 7 9 10 9 6 4 6 10 15 18 21 24 26 28 30 31 32 33 33 33 32 30 29 28 27 28 27 27 25
13 12 11 12 13 13 12 11 9 7 6 5 5 6 8 10 12 12 10 6 5 8 12 16 19 22 24 27 29 31 33 34 34 34 33 32 30 28 27 26 27 27 27 26
13 13 13 14 14 14 12 10 8 6 5 5 6 8 12 14 15 13 10 7 7 10 13 17 19 22 25 28 30 33 35 36 36 35 33 31 29 27 26 26 26 27 27 27
16 16 16 16 15 14 12 10 7 6 6 6 8 11 15 17 17 14 11 8 8 11 14 17 20 23 26 29 32 34 37 38 38 37 34 31 29 27 26 26 26 27 27 27
18 18 18 17 16 14 12 9 7 6 6 7 10 15 19 19 18 15 12 9 10 12 15 17 20 23 26 30 33 36 38 39 40 39 36 33 31 29 27 26 26 26 27 28
20 20 20 19 17 14 12 9 8 7 7 9 14 18 21 20 19 16 12 10 10 12 14 17 20 23 26 30 34 36 38 40 41 40 39 36 33 31 30 28 27 26 27 27
21 21 20 19 17 15 12 10 9 9 9 12 16 20 22 21 19 16 13 11 10 12 14 16 19 22 26 29 33 36 38 39 40 41 40 39 37 35 33 32 30 29 27 27
21 21 20 19 18 16 14 12 11 11 11 14 19 22 24 23 20 17 14 11 10 11 13 15 17 20 24 28 31 34 37 39 40 41 41 40 39 38 37 36 35 33 31 30

GEFSNGP_500_meanwind_030.txt.gz
Wind_Speed
49 47 46 44 43 44 44 45 47 48 48 47 47 47 45 44 43 42 43 43 44 44 47 47 46 48 45 43 42 43 45 46 47 48 48 48 49 49 47 45 44 45 47 50
54 53 52 50 47 48 48 49 50 49 49 47 48 48 48 47 47 46 46 46 46 47 47 46 46 44 43 42 43 45 45 45 46 46 47 48 48 46 45 44 45 47 49 51
54 55 56 56 52 53 53 54 54 54 52 52 52 51 51 50 49 49 49 49 50 50 49 47 44 44 44 44 44 43 43 44 45 46 47 46 45 44 44 45 47 49 50 52
49 51 53 52 52 51 52 52 53 54 54 54 55 55 55 54 53 52 51 51 51 50 48 47 45 43 42 43 42 42 42 43 44 45 45 44 44 44 45 47 48 49 50 51
44 47 48 48 49 50 50 50 49 50 50 51 52 53 54 54 53 52 52 52 50 48 46 45 43 41 41 41 40 41 42 43 43 43 43 43 43 45 47 48 48 49 50 50
42 44 45 45 46 46 48 46 43 44 45 46 47 48 48 48 48 49 49 48 47 45 44 42 40 39 38 38 39 40 41 42 41 41 41 43 44 46 46 47 47 48 48 48
37 39 40 41 41 41 41 40 39 39 39 40 40 41 42 43 42 42 41 41 40 40 38 36 36 35 35 36 37 39 39 39 39 40 41 43 45 45 45 46 46 46 46 45
32 33 33 34 35 36 36 35 34 34 34 34 34 34 35 35 35 34 35 35 34 33 31 30 30 31 32 34 35 36 36 36 38 40 42 44 44 44 43 43 43 43 43 42
27 26 27 28 29 29 30 30 29 28 28 28 28 28 28 28 28 29 29 28 26 24 23 24 26 28 30 32 32 32 33 36 38 40 42 42 42 42 41 41 41 41 40 39
22 22 22 23 23 24 24 23 21 21 21 22 22 22 22 21 21 21 20 19 18 18 19 21 24 26 27 28 29 30 33 36 38 40 40 40 40 39 38 38 37 37 36 35
17 17 17 17 17 16 16 15 15 15 16 16 15 15 17 16 14 13 12 13 14 15 17 19 22 23 24 25 28 31 34 36 38 38 38 38 37 36 35 34 33 33 32 30
12 12 11 10 10 8 9 9 9 9 9 11 12 12 11 10 10 9 9 10 11 13 16 18 20 20 22 24 28 31 34 35 36 37 37 36 35 34 32 31 31 30 29 27
10 9 8 7 7 8 9 11 10 9 8 8 8 8 7 6 6 5 6 8 11 13 15 16 17 18 21 25 29 32 33 34 35 35 35 34 33 32 30 29 29 27 26 24
9 9 10 10 9 8 8 8 8 7 7 6 6 5 4 3 3 5 7 9 10 11 12 13 15 18 23 26 29 31 33 33 34 34 33 32 30 29 28 27 26 26 24 21
8 10 11 10 9 8 7 7 5 4 3 3 3 2 2 3 4 6 7 8 8 8 10 12 16 20 24 26 29 31 32 33 33 33 31 30 28 26 25 25 24 24 22 19
8 8 9 9 8 6 6 5 4 3 3 2 2 2 3 4 4 5 5 5 5 7 9 13 17 21 24 26 29 31 32 33 32 31 29 27 25 24 23 23 23 22 20 17
7 6 7 7 6 6 5 4 3 3 2 2 3 3 3 3 3 3 2 3 4 7 11 15 18 21 24 26 29 31 32 31 30 29 27 25 24 23 22 22 22 21 19 16
6 6 6 6 5 5 4 4 3 3 3 3 2 2 2 1 1 2 3 3 5 8 12 15 18 21 25 28 30 31 31 30 29 28 26 24 23 23 23 22 22 21 20 17
7 6 6 5 5 5 5 5 4 4 3 3 2 1 1 2 4 5 5 5 7 10 13 16 19 23 26 29 30 31 31 31 29 28 26 24 24 24 23 23 22 22 20 19
10 9 8 7 7 6 6 5 4 3 3 3 3 3 4 6 7 7 6 7 8 11 14 18 21 24 27 30 31 33 33 32 30 29 27 25 24 24 24 24 23 22 21 19
11 10 9 9 8 7 6 5 5 4 4 4 4 6 8 9 9 9 8 8 10 13 16 19 22 25 29 31 33 34 34 33 32 30 28 27 25 25 25 25 24 24 22 20
13 11 10 9 8 7 7 6 6 6 5 6 7 10 11 12 11 10 9 9 11 14 17 19 23 27 30 33 35 36 36 35 34 32 31 29 27 26 26 26 26 25 23 22
14 12 10 9 9 9 8 8 7 7 7 8 10 13 14 14 13 11 10 11 12 15 17 21 24 28 31 34 36 37 37 36 36 35 34 32 30 28 27 27 26 26 26 24
14 12 11 10 10 10 9 9 8 8 9 11 13 15 17 16 14 12 11 11 13 15 18 22 25 28 31 34 36 38 38 38 37 37 36 35 33 31 30 29 28 27 27 26
14 13 12 12 11 11 10 9 9 9 10 13 16 18 18 17 14 12 11 12 14 16 19 22 26 29 32 34 36 37 38 39 39 39 39 38 37 35 34 32 31 30 28 28
15 14 14 13 13 12 11 10 9 10 12 15 18 20 19 17 15 12 11 12 14 16 19 22 25 29 32 34 36 37 38 39 40 40 40 41 40 39 38 36 35 34 32 30
16 16 16 15 14 13 12 10 10 11 14 17 20 21 20 18 15 13 11 12 13 15 18 21 24 28 31 33 35 37 38 39 40 41 41 42 42 42 41 41 39 38 37 35

GEFSNGP_500_meanwind_036.txt.gz
Wind_Speed
41 41 42 40 39 39 40 40 41 40 39 38 39 38 37 37 38 37 37 37 38 39 40 41 43 44 45 46 47 47 48 49 51 50 49 49 48 48 48 48 49 50 50 50
42 41 41 40 39 40 40 41 42 42 42 43 44 42 41 41 42 42 42 42 42 43 43 44 45 47 47 48 48 48 49 49 50 51 50 49 47 47 47 48 49 49 49 49
41 42 41 42 43 42 41 43 44 45 47 47 46 46 45 45 45 45 45 45 45 46 46 46 46 47 48 48 47 48 49 49 50 50 48 46 46 46 47 47 47 48 48 50
39 39 39 42 41 39 40 41 43 45 46 47 47 47 47 46 46 46 46 45 45 45 45 45 45 46 46 46 46 49 49 49 48 46 45 45 45 45 46 46 46 48 49 51
35 36 37 39 37 36 37 38 40 41 43 44 44 45 45 45 45 45 44 43 42 41 41 41 42 43 43 44 48 49 47 46 45 44 42 43 44 44 45 46 47 49 50 50
32 33 34 38 35 35 36 37 38 38 39 40 41 42 43 42 42 41 41 40 39 37 37 38 39 41 43 45 46 45 44 43 42 41 41 42 43 44 45 47 48 49 49 48
30 31 34 34 33 34 34 35 35 35 36 36 37 38 38 37 37 37 37 36 35 34 34 35 38 40 43 43 42 41 40 39 39 39 40 41 43 44 46 47 47 47 46 44
27 29 31 31 31 32 32 31 31 31 32 32 32 32 32 32 32 32 31 30 30 31 32 34 37 39 39 39 38 37 36 36 37 38 39 41 43 45 45 45 45 43 41 39
25 26 28 28 28 28 28 27 26 27 27 26 26 26 25 25 24 24 25 25 26 28 30 32 34 35 33 31 30 31 32 34 36 37 40 42 43 43 43 42 41 39 36 33
22 23 24 24 24 24 23 22 21 21 20 19 19 18 18 18 19 20 22 23 25 26 26 25 25 24 24 26 28 29 31 34 36 38 40 41 42 41 40 38 35 32 30 27
20 21 21 20 20 19 18 17 15 14 14 14 14 13 14 15 17 17 17 18 18 18 18 18 19 20 22 23 26 29 32 34 37 39 39 39 38 37 35 32 29 27 24 22
18 18 18 16 15 13 12 10 9 8 7 8 8 10 10 12 12 11 11 11 12 13 14 15 17 18 20 23 27 30 33 35 37 37 37 36 34 31 28 25 23 22 20 18
15 15 14 12 10 8 8 7 5 5 5 5 5 6 6 7 7 7 7 8 9 10 11 13 15 18 22 25 28 31 33 35 35 34 33 31 28 26 23 21 20 18 16 14
10 10 10 9 6 5 4 4 4 3 3 2 3 2 3 3 3 3 4 5 7 8 11 14 17 20 23 26 29 31 32 33 32 30 28 26 24 22 20 19 18 16 13 11
7 7 8 8 7 6 4 4 4 3 3 2 2 2 1 1 2 3 4 5 7 9 12 15 18 21 24 27 29 30 30 29 28 26 23 21 20 19 17 16 15 14 11 9
5 6 7 8 7 5 5 5 5 5 4 3 3 3 2 2 2 3 4 6 8 11 14 17 20 23 25 27 28 28 27 26 24 22 20 19 18 17 16 15 13 12 10 8
5 6 7 7 7 6 6 7 6 6 5 4 3 3 3 3 4 5 6 7 10 13 15 18 21 24 25 26 26 26 25 23 22 20 18 17 17 16 15 13 12 11 9 7
5 6 6 7 7 7 7 7 6 5 5 5 4 4 5 5 6 7 8 10 12 14 17 19 22 24 25 26 25 24 24 23 21 19 17 17 16 15 14 13 11 11 10 8
6 6 6 6 6 6 6 6 6 6 6 5 6 6 7 7 8 9 10 11 13 15 18 20 22 24 25 25 25 25 24 23 21 19 18 17 16 16 14 12 11 11 11 11
6 5 4 4 4 4 5 5 6 6 6 7 7 8 9 9 10 10 11 12 14 16 19 21 23 25 26 27 27 26 25 24 22 21 19 18 17 16 15 13 12 12 12 12
7 6 4 3 4 4 5 5 6 7 7 8 9 10 10 11 10 10 11 13 15 17 20 22 24 26 28 29 29 29 28 26 24 23 22 20 18 17 16 14 13 13 13 14
8 7 6 5 5 6 6 7 7 8 9 10 11 11 12 11 11 11 12 13 16 18 21 23 26 29 30 31 31 31 31 29 28 26 25 23 21 19 18 16 15 14 15 15
10 8 7 6 6 7 8 8 9 10 11 12 13 13 13 12 12 12 12 14 16 19 22 25 28 30 32 33 33 33 33 32 31 30 28 27 25 23 21 19 18 17 17 17
10 9 8 7 8 9 9 10 11 12 13 14 15 15 14 13 13 12 13 14 17 19 23 26 29 31 33 35 35 35 36 35 34 33 32 31 29 27 25 23 21 20 19 18
12 11 10 9 10 10 11 11 13 14 15 16 17 16 15 14 13 13 13 14 16 19 23 26 29 31 34 36 36 37 38 38 38 37 36 35 34 32 30 27 25 23 22 21
13 12 11 10 11 12 12 13 14 16 17 18 19 18 16 15 14 13 13 14 16 19 22 25 28 30 33 35 37 38 39 40 40 40 39 39 38 37 34 32 29 27 26 24
14 13 12 12 12 13 14 14 16 18 19 20 20 19 17 16 15 14 14 14 15 18 21 23 26 28 31 34 36 38 39 41 42 43 43 42 42 41 39 37 35 32 31 29

GEFSNGP_500_meanwind_042.txt.gz
Wind_Speed
40 37 33 29 29 29 30 31 32 32 30 33 38 40 41 43 43 44 45 46 46 46 46 46 46 46 46 47 49 50 51 52 52 53 55 55 57 58 60 62 64 62 60 56
41 40 40 40 37 35 33 31 33 35 35 43 47 48 48 48 48 49 50 52 52 51 50 49 48 48 48 48 49 50 51 52 52 53 55 57 58 59 61 61 61 60 55 52
40 39 39 42 41 40 41 40 41 42 45 49 49 48 48 48 48 49 50 51 52 51 50 48 48 47 48 48 49 49 50 51 52 53 55 57 58 59 60 60 58 53 50 49
37 37 39 36 36 39 42 45 45 46 48 48 46 45 45 47 48 49 49 50 50 50 49 48 48 47 47 47 47 48 49 50 51 53 55 57 58 58 57 55 52 50 48 48
34 34 32 30 35 38 40 43 43 44 44 44 44 45 45 46 46 47 47 47 48 48 47 47 46 45 44 44 45 45 47 49 50 53 55 55 55 54 52 50 48 46 47 47
31 31 29 33 36 37 36 39 39 39 39 39 40 42 43 43 44 44 44 44 44 44 44 43 42 41 42 41 42 44 46 49 51 53 53 52 51 49 48 46 45 46 46 46
28 30 31 34 36 36 37 40 38 37 37 37 38 39 40 40 41 41 40 40 40 39 39 38 37 38 38 39 41 43 47 48 49 49 48 47 46 44 43 43 43 44 43 42
26 28 33 34 34 34 35 36 36 35 35 35 36 36 36 36 36 36 35 35 34 33 32 32 33 34 35 37 40 42 43 43 44 43 42 42 42 42 42 41 40 39 38 36
25 27 29 30 30 31 32 33 33 33 33 33 33 33 32 32 31 30 29 29 28 27 28 29 30 32 34 36 37 37 37 37 37 37 38 39 39 39 38 37 35 34 32 30
26 28 28 27 28 28 29 29 29 29 29 29 29 28 27 26 25 25 24 24 24 24 25 26 28 30 30 30 30 31 32 33 34 35 36 36 36 35 34 32 30 28 26 24
24 26 26 26 26 25 25 25 24 24 23 22 21 21 21 20 19 19 19 19 19 20 21 23 23 24 25 27 28 29 31 32 33 34 34 33 32 31 28 26 24 23 21 20
22 23 23 23 22 22 21 20 19 18 17 17 15 14 14 14 13 14 15 16 17 17 18 19 20 22 24 26 28 29 31 32 32 32 31 29 27 25 23 22 20 19 18 17
20 20 20 20 20 19 18 16 14 13 12 11 10 9 9 9 10 11 12 13 14 14 16 17 19 21 23 25 27 29 30 30 30 29 27 25 23 21 20 18 17 16 15 14
17 17 16 16 15 14 13 12 10 9 8 7 7 7 7 8 9 9 10 10 12 13 15 17 19 22 24 26 28 29 28 27 27 25 24 22 20 19 17 16 14 13 13 11
13 13 12 11 11 10 9 8 8 6 6 6 5 5 5 5 6 7 8 10 12 14 16 18 21 23 25 27 28 27 27 26 25 23 21 19 17 16 14 13 12 11 10 9
9 9 9 8 8 7 7 7 7 5 5 4 2 2 2 3 5 6 8 10 12 14 17 20 22 25 26 27 26 25 25 24 23 20 18 17 15 14 12 11 10 9 8 7
5 6 7 6 6 6 6 6 6 5 4 3 2 1 1 3 5 6 8 10 13 16 19 22 24 26 27 27 27 27 25 23 21 18 16 15 13 12 10 9 9 8 7 7
4 4 4 4 5 6 6 6 6 5 4 3 2 1 2 3 4 6 8 11 14 17 20 23 25 27 27 27 26 25 23 22 20 17 15 13 12 10 9 8 8 8 8 8
3 3 3 4 5 6 7 6 6 5 4 4 3 3 3 4 5 7 10 13 15 19 22 24 26 26 26 26 26 24 23 22 19 17 14 12 10 9 8 8 8 9 10 10
5 3 3 4 5 5 6 6 6 6 5 4 4 4 5 5 7 9 11 14 17 21 23 24 25 27 28 27 26 25 24 22 20 17 14 12 10 9 9 9 9 10 11 12
7 5 4 3 4 5 5 5 6 6 6 6 6 6 6 7 8 10 12 15 18 21 22 24 26 28 29 28 28 28 26 24 21 18 15 13 12 11 11 11 11 12 13 14
7 6 5 4 4 5 5 6 6 7 7 7 7 7 8 9 9 11 13 16 18 20 22 25 28 29 29 29 30 29 28 26 23 20 17 15 13 13 13 13 14 14 15 16
8 7 6 5 5 5 6 7 8 8 9 9 9 8 9 10 10 12 14 16 18 20 23 26 28 29 30 32 32 32 31 29 27 23 20 18 16 16 15 16 16 16 17 17
8 7 6 6 6 6 7 8 9 9 10 10 10 10 10 10 11 12 13 15 18 20 23 26 28 30 31 34 34 34 33 32 31 28 24 22 20 19 18 18 18 18 18 18
8 8 7 6 6 7 8 9 10 11 12 12 11 11 11 11 11 12 13 15 17 19 22 25 28 30 33 35 35 36 36 35 34 33 30 27 24 23 22 21 21 21 20 19
10 9 8 7 8 8 9 11 12 12 13 13 13 12 12 11 11 12 12 13 16 18 21 24 27 30 33 35 36 37 37 38 37 36 34 32 29 27 25 24 23 22 21 21
11 10 10 9 9 9 10 11 13 14 14 15 14 14 13 12 11 11 11 12 14 16 19 22 25 28 31 33 35 37 38 38 39 38 37 35 33 31 29 27 26 25 24 23

GEFSNGP_500_meanwind_048.txt.gz
Wind_Speed
37 37 38 37 35 34 34 35 37 37 38 39 40 41 41 42 43 44 44 43 43 44 47 51 54 55 57 57 56 56 55 54 54 54 54 54 55 55 55 56 56 56 56 55
39 39 40 41 41 41 40 40 40 42 44 45 46 46 45 45 46 46 46 46 48 52 54 56 56 57 57 57 57 56 55 55 54 53 52 52 53 53 54 53 53 54 54 55
39 39 40 43 44 45 46 45 46 46 47 48 48 48 47 46 47 48 50 52 55 56 56 56 57 56 56 56 55 55 54 53 51 50 49 50 50 51 51 51 52 53 54 55
38 37 36 39 43 45 47 49 50 51 51 50 49 48 48 49 50 52 53 54 54 54 55 54 54 54 54 53 53 52 50 48 47 46 46 47 47 48 49 51 52 53 53 53
33 33 31 31 34 38 41 44 46 49 51 51 51 51 50 50 51 51 51 52 52 52 52 52 51 51 50 49 48 46 44 43 42 43 44 45 47 48 49 50 50 50 49 48
31 30 30 30 30 32 34 37 39 41 43 45 45 46 46 46 47 47 48 49 49 49 49 48 47 45 44 43 41 40 39 39 40 41 42 44 45 46 47 47 46 45 44 43
26 27 27 28 28 28 31 34 35 37 39 40 41 42 43 44 44 45 45 45 45 44 43 42 41 40 39 37 37 37 37 37 39 40 42 43 43 43 42 42 42 42 41 40
21 21 22 23 24 27 29 30 32 34 35 37 38 39 40 41 42 42 41 41 40 39 38 37 36 35 34 34 34 34 35 36 37 38 39 39 40 40 40 40 39 39 37 36
18 19 20 21 21 22 24 26 28 31 32 33 35 36 36 36 36 36 35 35 34 33 32 32 31 30 31 31 32 32 33 34 35 36 38 38 38 38 37 36 35 33 32 30
17 18 19 20 21 21 22 23 24 26 28 29 30 30 31 31 30 29 28 28 27 27 26 26 26 27 27 28 29 31 33 34 35 36 37 37 36 35 33 31 29 27 26 24
18 18 19 20 21 21 21 22 23 24 25 25 25 25 25 24 23 23 22 22 22 22 23 23 24 25 26 27 29 31 32 33 34 34 34 33 31 30 28 26 23 22 20 19
18 18 18 18 19 19 20 20 21 21 20 21 20 20 19 19 18 18 18 18 19 20 20 21 22 24 26 28 30 31 32 32 32 31 30 29 27 24 22 20 19 17 16 15
16 17 17 17 17 17 17 17 17 17 17 16 16 15 14 14 14 14 15 16 16 17 18 20 22 24 27 28 30 31 31 31 30 28 26 24 21 19 17 16 15 14 13 11
14 14 15 15 15 15 14 13 13 13 12 12 11 11 10 10 11 11 12 12 14 16 18 20 23 25 27 29 30 30 30 29 27 25 22 19 16 15 13 11 10 10 9 7
11 11 11 11 11 10 10 9 9 8 8 8 7 7 7 8 8 8 10 12 14 16 19 21 24 26 28 29 29 29 27 25 23 20 17 14 12 10 9 8 7 6 6 4
8 8 8 8 7 7 6 6 6 5 5 4 4 4 4 5 6 7 10 12 14 17 20 23 25 27 28 29 28 27 24 22 19 15 12 10 9 8 7 7 6 5 5 5
6 6 6 5 4 4 3 3 3 3 2 1 1 1 2 3 6 8 10 13 16 19 22 24 26 28 28 27 26 24 21 18 15 12 10 8 8 8 7 8 8 8 8 9
5 4 3 3 2 1 1 1 1 1 0 1 2 2 3 5 7 9 12 14 17 20 23 26 27 27 27 26 25 22 19 16 13 11 10 9 9 9 9 10 10 11 11 11
3 2 1 2 2 2 1 1 1 1 2 3 4 4 5 6 8 11 13 16 19 22 25 26 27 27 27 26 25 22 19 15 13 12 11 11 11 10 10 11 12 13 13 13
1 0 1 2 2 2 3 2 2 3 4 4 5 5 7 8 10 12 14 17 21 23 25 27 28 28 27 26 24 22 19 16 15 14 13 13 12 12 12 13 14 14 15 15
3 1 1 2 2 3 3 2 3 4 5 5 6 7 8 9 10 12 15 19 22 24 26 28 29 29 28 27 25 22 20 18 18 17 16 15 15 15 15 16 16 16 16 16
3 3 2 2 2 2 3 3 4 6 6 7 8 8 9 10 11 13 16 20 22 24 27 29 30 31 30 28 26 25 23 21 21 20 19 19 19 19 18 18 18 17 17 16
5 4 3 3 3 3 4 5 6 7 8 9 9 9 9 10 11 14 17 20 22 25 27 29 30 31 31 30 29 27 26 25 24 23 23 23 22 22 21 20 20 19 18 17
5 4 4 4 4 4 5 6 7 9 9 9 10 10 10 10 11 14 16 19 22 24 26 28 30 31 32 32 31 30 28 27 26 26 25 25 24 23 22 21 21 20 19 18
6 5 4 4 4 5 6 7 8 9 10 10 10 10 10 10 11 13 16 18 21 23 25 27 30 32 32 32 32 31 29 28 28 27 26 26 25 24 23 22 21 21 20 19
7 6 5 5 5 6 7 8 9 10 11 11 11 11 10 10 11 13 15 17 19 21 24 26 29 31 32 33 32 32 31 30 29 29 28 28 27 26 25 24 23 22 22 21
8 7 6 6 6 6 8 9 11 12 12 12 12 12 11 10 11 12 13 15 17 19 22 25 28 30 31 32 32 32 32 32 31 31 30 30 29 29 28 28 27 26 24 23

GEFSNGP_500_meanwind_054.txt.gz
Wind_Speed
30 30 31 32 33 34 35 37 38 39 39 40 40 40 40 40 40 40 41 42 42 44 45 47 48 49 51 52 54 55 56 57 58 59 59 59 59 59 58 58 57 56 56 56
33 33 34 35 35 35 36 37 39 40 40 40 41 41 42 43 43 43 43 44 45 45 47 49 51 52 53 54 55 56 57 57 58 57 57 57 57 57 56 55 54 53 53 53
35 36 37 37 37 37 38 38 39 40 40 41 41 41 40 41 41 41 42 43 45 46 48 49 51 54 55 55 55 55 55 55 55 55 55 54 54 53 52 51 50 50 50 50
34 35 37 37 37 38 38 38 38 38 38 38 38 37 38 39 40 42 44 45 46 47 49 51 52 52 53 53 53 53 53 52 52 51 51 51 50 49 48 48 48 49 49 49
31 33 34 34 34 34 34 35 36 37 37 38 38 38 38 39 39 40 42 43 45 47 48 50 50 51 51 51 50 50 49 49 48 47 47 47 46 46 46 46 47 47 48 48
27 28 29 29 29 29 31 32 32 34 35 35 34 35 35 36 38 39 41 43 44 45 46 47 48 48 48 47 46 46 45 44 44 44 43 43 44 44 44 45 46 46 46 46
23 24 24 24 24 25 26 27 28 30 31 32 33 34 34 35 37 38 40 41 42 43 43 44 44 44 43 42 42 41 40 40 40 41 41 41 42 43 44 45 45 45 44 43
19 20 20 21 22 22 23 23 24 26 28 29 31 32 33 34 35 36 37 38 38 39 40 39 39 38 37 37 36 36 36 37 37 38 39 40 41 42 43 43 42 41 40 38
16 16 16 17 18 19 20 21 22 24 25 26 28 29 30 31 32 33 33 34 34 34 34 34 33 33 33 33 33 34 34 35 37 38 39 40 40 41 40 39 38 36 34 32
14 15 15 16 16 17 18 19 20 21 22 23 24 25 26 27 28 28 29 29 29 29 28 28 29 29 30 30 31 33 34 35 37 38 39 39 39 38 36 34 32 29 26 24
13 14 15 16 16 16 17 18 19 19 20 21 22 23 24 24 25 24 24 24 24 24 24 25 25 26 27 29 31 33 35 36 37 37 37 35 34 32 29 27 24 22 19 17
13 13 14 15 15 16 17 17 18 18 19 19 20 20 20 20 20 19 19 19 20 20 21 22 23 25 27 30 32 34 35 35 34 33 31 29 27 25 22 20 18 16 14 12
12 12 13 13 14 15 15 15 16 16 16 16 16 16 16 15 14 14 15 15 16 17 19 21 23 26 28 31 32 33 33 32 30 28 25 22 20 19 16 14 13 11 9 8
11 11 11 12 12 12 13 13 12 12 12 12 11 11 11 10 10 10 11 12 14 16 19 22 25 27 29 30 31 31 29 26 24 21 19 17 15 13 12 10 9 8 7 6
10 10 10 10 9 9 9 8 8 8 8 8 7 7 6 6 6 7 9 11 14 17 21 24 26 28 29 29 28 26 24 21 19 16 14 13 11 10 9 9 8 8 7 7
8 8 8 8 7 7 6 6 6 6 5 4 3 3 3 3 5 7 10 13 16 19 22 24 26 27 26 26 25 23 20 17 15 13 11 10 10 10 10 10 9 9 10 10
7 6 6 6 5 4 3 3 2 2 1 1 0 1 2 4 6 8 11 14 18 20 23 24 25 25 24 23 22 19 17 15 13 11 10 10 10 10 10 10 11 11 12 13
6 6 5 4 2 1 1 0 1 2 2 2 3 4 4 6 8 10 13 16 19 21 22 24 24 24 22 21 20 18 16 14 13 11 11 11 11 11 12 12 12 13 14 14
6 5 4 3 2 2 1 1 2 3 4 5 6 6 6 7 9 12 15 18 20 21 22 23 23 22 21 20 19 18 16 15 14 13 12 12 13 13 13 14 14 15 15 15
5 3 3 3 2 2 2 2 3 4 6 7 7 7 8 9 11 14 16 18 20 21 22 22 22 22 21 20 20 19 18 17 16 15 15 15 15 16 15 15 15 15 15 15
4 2 1 2 3 3 3 4 5 7 8 8 8 8 9 10 13 15 17 19 20 21 22 22 23 22 22 21 21 20 20 19 19 18 17 17 18 18 17 17 16 16 15 15
3 2 2 2 3 3 4 5 6 8 9 9 8 8 9 11 13 15 17 20 21 22 23 23 23 23 23 22 22 21 21 21 20 20 19 19 19 19 19 18 17 16 15 15
4 3 3 3 3 4 5 6 7 8 9 9 9 9 9 11 13 15 18 20 21 22 23 23 23 23 23 23 23 23 22 22 22 21 20 20 19 19 19 18 18 17 16 15
5 4 4 4 5 6 7 8 9 10 10 10 9 9 9 11 13 15 17 20 21 22 23 23 24 24 24 24 24 24 24 23 23 23 22 21 20 20 19 19 18 17 16 16
7 6 6 5 6 7 8 9 10 11 10 10 9 9 9 10 12 14 16 18 20 21 22 24 25 25 26 26 26 25 25 25 24 24 23 23 22 21 21 20 19 19 18 17
8 7 7 7 8 9 9 10 11 12 11 11 10 9 9 10 11 13 15 17 19 21 22 23 24 25 26 27 28 28 28 28 27 26 25 25 24 23 23 22 22 21 20 20
10 8 8 8 9 9 10 11 13 13 12 12 11 10 10 9 10 11 14 16 18 19 21 22 23 24 25 26 27 28 29 29 29 29 28 28 27 26 25 25 25 24 23 22

GEFSNGP_500_meanwind_060.txt.gz
Wind_Speed
20 21 23 24 25 26 28 28 28 29 31 32 33 33 33 34 34 34 35 35 37 38 39 41 42 43 44 45 46 47 48 49 51 52 53 54 54 55 55 55 55 55 55 54
21 21 22 23 25 26 28 30 31 32 33 34 34 35 36 36 36 37 37 37 38 39 40 42 42 43 44 44 45 47 49 50 51 51 52 53 53 54 54 54 54 54 53 53
21 22 22 23 25 27 29 30 31 33 35 35 36 36 36 37 37 38 39 39 40 40 41 41 42 42 44 45 47 48 49 49 49 50 51 52 52 52 53 52 52 51 51 50
20 22 22 24 25 26 28 29 31 32 33 34 34 35 36 36 35 36 36 37 38 39 40 40 41 42 44 45 46 47 47 48 48 49 49 50 50 50 49 49 49 48 48 48
18 20 22 24 23 24 25 27 29 30 30 31 32 33 34 34 34 35 36 37 37 38 39 39 41 42 43 44 45 46 46 46 46 46 47 47 47 46 46 46 47 47 47 47
17 18 21 22 20 20 21 24 24 25 26 27 28 30 31 31 32 33 33 35 36 37 37 39 40 41 42 43 43 43 43 44 44 44 44 44 44 44 44 45 45 46 46 47
15 17 19 19 17 18 20 22 22 22 23 25 26 28 29 29 30 31 32 33 34 35 36 37 38 39 40 40 40 41 41 41 41 42 42 42 42 43 43 44 44 45 45 45
13 15 16 16 16 17 19 20 20 21 22 23 24 25 26 27 28 29 30 31 32 34 35 35 36 36 37 38 38 38 38 38 39 39 40 41 41 42 42 43 43 42 42 41
13 14 15 15 15 17 17 18 19 19 21 22 23 24 24 25 26 27 28 30 31 32 32 32 33 33 34 34 35 35 35 36 37 39 39 40 40 40 40 39 38 37 35 32
12 13 14 14 14 15 15 16 17 18 19 20 21 22 23 24 24 25 26 27 28 28 29 29 30 31 31 31 32 33 35 36 37 38 38 38 37 36 34 33 30 28 26 23
11 12 13 13 14 15 16 16 17 18 19 19 20 20 20 20 21 22 23 24 25 25 26 26 27 28 29 30 32 33 35 35 36 35 34 31 30 28 27 25 23 20 18 16
10 11 12 13 14 14 14 15 16 16 17 17 18 18 18 19 20 20 20 21 21 22 22 23 25 27 29 31 31 31 32 31 30 28 26 24 23 21 20 18 16 14 12 11
10 11 11 12 13 13 14 14 14 15 15 15 15 16 16 16 16 17 17 17 18 19 21 23 25 27 28 28 28 28 27 26 24 21 19 18 16 15 13 12 10 9 8 6
9 10 10 11 11 11 11 12 12 12 12 12 12 12 12 12 13 13 13 15 16 18 20 22 23 24 25 25 24 23 21 18 16 15 13 12 11 10 9 8 7 6 5 5
8 8 9 10 10 10 10 10 10 9 8 8 9 9 9 9 9 10 12 13 15 17 19 20 21 21 21 21 19 17 15 14 13 11 10 9 9 8 8 8 7 7 8 8
7 8 8 9 9 9 9 8 8 7 6 6 6 6 6 7 8 9 11 13 14 16 17 18 19 19 18 17 16 15 13 12 10 10 9 8 8 8 8 8 9 9 9 10
7 7 7 8 7 7 6 6 5 4 4 4 4 4 4 5 7 9 11 12 13 14 16 16 17 17 17 16 14 13 12 11 10 10 10 9 9 9 10 10 11 11 11 12
6 6 6 6 5 4 4 3 2 1 1 2 2 2 3 5 7 9 10 11 13 14 15 16 16 16 15 15 14 13 12 12 12 12 12 11 11 12 12 12 12 12 13 14
5 5 6 5 4 3 2 1 0 0 0 1 2 3 4 6 8 9 10 12 13 13 14 15 15 15 15 14 14 13 13 13 13 13 13 13 13 13 13 13 13 13 14 14
5 5 5 4 3 2 1 0 0 1 2 3 3 4 6 7 9 10 11 12 13 14 14 15 15 15 15 14 14 14 14 14 14 14 14 14 13 13 13 13 14 14 14 14
4 4 4 3 2 1 1 1 2 3 4 4 4 5 6 8 9 11 12 13 14 15 15 16 16 16 15 15 15 15 14 14 14 14 14 14 14 14 14 14 14 14 15 15
3 3 2 1 1 2 2 3 3 4 5 5 5 5 7 8 10 11 12 14 15 16 17 17 17 17 16 16 16 15 15 15 15 14 14 14 14 14 14 14 14 14 14 14
4 3 2 2 2 3 3 4 4 5 5 5 5 5 7 8 10 11 12 14 16 17 18 18 18 18 18 18 17 17 16 16 16 15 15 14 14 14 14 13 13 13 13 13
5 4 4 3 3 4 4 5 6 6 6 5 5 5 7 8 10 11 13 14 16 17 18 19 19 20 20 20 19 19 18 17 17 16 16 15 15 15 14 14 13 13 13 13
6 6 5 5 5 5 6 7 7 7 7 6 5 6 7 8 9 11 13 14 15 17 18 19 20 20 21 22 22 21 20 20 19 18 18 17 17 17 16 16 15 15 15 15
8 7 6 6 6 7 7 8 8 8 8 7 6 6 7 8 9 10 12 13 15 16 17 18 20 21 21 22 23 22 22 22 21 21 21 20 20 19 19 18 17 17 16 16
9 8 8 8 8 8 9 9 9 9 9 8 7 7 7 7 8 9 10 12 13 14 16 17 18 19 20 21 21 22 22 22 22 22 22 22 21 21 20 20 19 19 18 18

GEFSNGP_500_meanwind_066.txt.gz
Wind_Speed
17 16 16 17 18 20 22 23 25 28 32 34 36 34 33 32 30 28 28 29 31 33 34 36 37 38 39 41 42 43 44 45 46 47 49 50 52 53 55 57 58 59 59 59
16 16 17 16 18 19 21 23 25 29 31 32 34 36 33 30 27 27 28 30 32 34 36 38 39 41 42 42 43 44 45 46 48 50 51 53 54 55 56 56 57 57 57 57
15 17 17 17 19 21 22 24 27 29 31 32 32 30 31 30 30 31 32 33 34 35 36 37 39 40 41 41 42 43 45 46 48 49 50 50 52 53 53 54 54 55 55 54
16 17 18 22 23 23 24 25 27 29 31 33 33 34 33 33 33 33 33 33 34 35 36 36 36 37 38 40 40 41 43 45 46 47 48 50 51 51 52 52 53 53 53 53
16 16 18 23 24 25 26 28 28 29 31 32 32 33 34 34 33 33 32 32 33 34 34 34 36 37 37 38 40 42 44 45 45 46 47 47 48 49 49 50 50 50 50 50
16 18 20 22 23 23 24 27 27 28 29 30 31 32 33 32 31 31 31 31 31 32 33 34 36 36 37 38 40 41 42 43 43 44 44 45 46 46 47 47 48 48 47 47
16 18 20 21 23 23 24 25 24 26 27 27 28 28 28 28 28 29 30 30 31 31 32 33 34 35 36 36 38 39 40 40 41 42 43 43 44 45 45 45 45 44 44 44
16 17 19 19 20 22 22 23 23 23 23 24 24 24 25 26 26 27 28 28 29 30 31 31 32 33 34 35 36 37 38 39 40 41 42 42 42 41 41 40 40 39 38 37
16 17 18 17 18 19 20 21 21 21 21 21 22 22 23 24 24 25 26 27 27 27 28 29 30 31 32 33 34 35 37 38 38 39 39 38 37 36 35 34 34 33 33 32
15 16 16 16 16 17 18 19 20 20 20 20 20 21 21 21 23 23 23 23 23 24 26 27 28 29 30 31 32 34 34 35 35 34 34 32 31 31 30 29 29 28 27 25
15 15 15 14 15 15 17 18 18 18 19 19 19 19 20 20 19 19 19 20 21 22 23 24 25 27 28 30 31 31 31 31 30 29 28 27 26 26 26 25 24 23 21 19
14 14 14 14 15 16 16 16 16 16 16 17 17 17 17 16 16 17 18 18 19 20 21 22 24 25 26 27 28 28 28 27 26 24 23 22 22 21 21 20 19 18 15 13
14 14 14 15 15 15 15 15 15 15 15 15 14 14 13 14 14 15 16 17 17 18 19 21 23 23 24 24 24 24 24 23 22 20 19 19 18 18 18 17 16 14 12 10
14 14 14 13 13 14 14 13 13 13 13 12 12 12 12 12 13 14 15 15 16 17 19 20 20 20 21 22 22 22 21 20 18 17 17 16 15 15 15 14 12 11 11 10
13 13 13 13 14 14 14 13 12 12 11 10 10 10 10 11 12 13 13 14 15 16 17 18 18 19 20 20 19 19 18 17 16 15 14 14 13 13 13 12 12 11 11 11
13 13 13 13 13 13 12 11 10 9 8 8 8 8 9 10 11 11 12 13 14 16 17 17 17 18 18 17 16 16 16 15 14 13 13 12 12 12 12 12 12 11 11 12
13 12 12 12 12 12 11 10 8 7 7 7 7 8 9 9 9 10 11 13 14 15 15 16 16 16 15 15 14 13 13 12 12 12 12 12 12 13 13 12 12 12 12 12
12 12 11 11 11 11 10 8 7 6 6 6 7 8 8 8 9 10 11 12 14 14 14 14 14 14 13 13 12 12 11 11 12 12 12 12 12 13 12 12 12 12 13 13
12 11 11 11 10 10 9 7 6 6 6 6 7 7 7 8 10 10 11 12 13 13 13 13 13 13 13 12 11 11 10 11 11 11 12 12 12 12 12 13 13 13 13 14
11 11 11 10 9 9 7 6 5 5 5 5 6 7 8 9 10 11 12 13 14 14 14 13 13 12 12 12 11 10 11 11 11 11 11 12 12 12 12 13 13 13 13 13
10 10 10 9 8 7 6 4 4 4 4 5 6 7 8 9 10 11 12 13 14 14 14 14 13 13 12 12 11 11 11 11 11 11 11 11 11 12 12 12 13 13 13 13
9 8 8 7 6 5 4 3 3 3 3 4 5 7 8 9 10 11 12 14 14 15 15 14 15 15 14 13 11 11 12 11 11 11 11 11 11 11 11 12 12 12 12 12
8 7 6 6 5 4 3 2 2 2 3 4 5 6 7 8 9 11 12 14 15 16 16 16 16 16 16 15 14 14 13 13 12 11 11 11 10 10 10 11 11 11 12 12
8 7 6 5 4 3 2 2 1 1 2 3 4 5 7 8 9 10 12 14 15 16 16 17 18 19 18 16 16 16 16 15 14 14 13 13 12 12 11 11 11 11 12 12
8 7 6 5 4 3 2 2 1 0 1 2 3 4 6 7 9 10 11 13 14 14 15 16 18 18 18 18 19 19 18 17 16 15 15 15 14 14 13 13 12 12 12 12
8 7 6 5 4 3 3 3 2 1 1 1 2 3 5 6 7 9 10 11 13 13 14 15 17 17 18 19 20 19 19 18 17 17 16 16 15 14 14 14 13 13 13 13
9 8 7 6 5 5 4 4 3 3 3 2 2 2 3 4 6 7 8 9 11 12 13 14 15 16 17 18 18 19 19 19 18 18 17 16 16 16 15 15 15 14 14 14

GEFSNGP_500_meanwind_072.txt.gz
Wind_Speed
14 16 18 20 22 22 23 25 28 30 32 34 34 34 34 34 34 34 32 32 31 31 31 33 34 35 36 37 39 39 40 41 43 45 47 49 51 52 53 54 55 56 56 57
13 16 18 19 20 21 23 25 26 28 30 31 32 33 32 31 30 30 29 28 28 29 29 31 32 32 34 35 36 38 39 41 43 44 46 47 48 49 50 50 52 53 54 55
12 13 16 16 18 20 22 22 24 25 27 28 30 31 31 30 28 28 28 26 25 25 25 27 29 30 32 34 36 37 38 39 40 41 43 45 46 47 48 49 50 51 53 54
12 13 15 16 16 16 17 19 21 23 24 25 26 27 27 27 27 26 26 25 25 26 27 27 28 29 31 32 33 35 36 38 39 40 42 43 44 46 47 48 49 50 51 52
11 12 14 15 15 15 17 18 19 20 22 24 24 23 23 23 23 23 24 24 25 25 25 26 27 29 30 32 33 35 36 37 39 40 41 42 43 45 46 47 48 48 48 48
12 13 14 14 15 16 18 19 20 20 21 22 21 20 21 20 21 21 22 23 23 24 24 25 26 27 29 31 32 34 35 36 37 38 40 41 42 43 44 44 44 44 45 45
12 13 14 14 15 16 16 18 18 19 19 19 19 19 19 19 19 20 21 21 22 23 23 24 25 26 28 29 30 31 32 34 35 36 37 38 39 39 39 40 40 40 40 39
14 13 13 14 13 14 15 15 16 16 16 17 18 18 18 18 18 19 19 20 21 21 22 23 24 24 25 26 27 28 29 30 31 32 33 34 34 34 34 34 33 34 33 32
14 13 13 12 12 12 13 14 14 14 15 15 15 16 16 16 17 18 18 18 19 20 21 21 22 22 23 24 25 26 27 28 29 30 30 30 30 29 28 28 29 28 27 26
14 14 13 12 12 12 12 13 13 14 14 14 14 14 14 14 15 15 16 17 17 18 18 19 19 20 21 22 24 25 25 25 26 26 26 26 26 25 25 25 24 23 23 21
15 15 13 12 12 12 12 12 13 13 13 13 12 12 12 13 13 14 14 15 15 15 16 17 18 19 20 21 21 21 21 21 22 23 23 23 23 22 22 21 20 19 18 17
15 15 14 13 13 13 12 12 12 13 12 12 11 11 11 12 12 12 12 13 13 14 15 15 16 17 17 18 18 18 19 20 20 20 20 20 20 19 18 17 16 15 14 13
15 15 14 14 13 13 13 13 13 12 12 11 10 10 10 11 11 11 12 12 13 13 13 14 15 16 17 17 17 17 18 18 17 17 17 17 16 16 15 14 13 12 11 10
15 15 14 14 13 13 13 12 12 12 11 10 10 10 10 10 11 11 11 11 11 12 12 13 14 15 16 16 16 16 16 15 15 15 14 14 13 13 13 12 11 10 10 9
15 15 14 13 13 13 13 13 12 11 10 10 9 9 9 9 9 10 10 10 11 12 12 13 14 14 14 13 13 13 13 13 12 12 12 12 12 12 11 11 10 10 9 9
15 14 13 13 13 12 12 12 11 10 9 9 8 8 9 9 9 9 10 10 10 11 12 12 11 11 11 11 12 12 11 11 11 11 11 11 11 10 10 10 9 9 10 10
14 13 13 12 12 12 11 11 10 9 9 8 8 8 8 9 9 10 10 10 11 12 12 11 10 10 10 11 11 11 11 10 10 10 10 10 10 10 10 10 10 10 10 11
13 13 12 12 12 11 11 10 9 9 8 8 7 8 9 9 9 10 10 11 11 11 11 10 9 9 10 11 11 10 10 10 10 10 10 9 10 10 10 10 10 10 11 11
13 12 12 11 11 11 10 9 8 8 8 8 7 8 8 9 9 10 11 12 12 12 11 11 10 10 10 10 9 9 9 9 9 10 10 10 10 10 10 10 11 11 11 12
12 11 11 11 10 10 9 8 8 8 7 7 7 8 8 9 10 11 12 12 12 13 13 12 12 11 11 10 9 9 9 9 9 9 10 10 10 10 10 10 11 11 11 11
11 10 10 10 9 8 8 7 7 7 6 7 8 8 8 9 10 12 12 13 14 14 14 14 13 13 12 12 11 10 9 9 9 9 9 9 9 9 9 9 10 10 10 10
10 9 9 9 9 8 7 7 6 6 6 7 7 8 8 9 10 11 12 13 14 15 16 16 15 15 14 13 13 11 10 10 10 10 9 9 9 9 9 9 9 10 10 10
9 8 8 8 7 7 6 5 5 5 5 6 7 7 8 9 10 11 12 13 14 15 16 17 16 16 15 15 14 13 12 12 11 11 11 10 10 10 9 9 9 10 10 10
8 7 7 7 6 6 5 4 4 4 4 4 5 5 6 8 9 10 11 13 14 15 16 16 17 17 17 16 15 14 13 13 12 12 12 11 11 11 10 10 10 10 10 10
8 7 6 6 5 5 4 4 3 3 3 3 3 4 5 7 8 9 11 12 14 15 15 16 16 17 17 17 17 16 15 14 13 13 12 12 11 11 11 10 10 10 11 11
7 6 6 5 5 5 4 3 3 2 2 1 2 2 4 6 7 8 9 11 12 13 14 15 15 15 16 16 17 16 15 15 14 14 13 12 12 12 11 11 11 11 11 12
8 7 6 6 5 5 4 3 3 2 1 0 1 1 2 4 5 6 8 9 10 11 12 13 13 14 14 15 16 16 16 15 14 14 14 13 13 12 12 12 12 12 12 12

GEFSNGP_500_meanwind_078.txt.gz
Wind_Speed
11 12 13 15 16 18 21 22 23 25 26 27 28 30 31 32 33 34 34 34 34 34 34 33 33 33 33 34 35 35 35 36 37 38 39 41 41 43 44 46 47 48 50 51
11 12 13 14 15 17 19 21 23 24 25 26 27 28 29 30 31 32 33 32 32 31 31 31 30 29 29 29 30 31 32 34 35 37 38 39 40 42 43 45 47 49 50 51
11 12 13 13 14 15 17 18 20 22 24 25 25 26 28 28 28 29 29 29 29 29 28 28 27 27 27 27 27 29 30 31 32 34 35 37 39 41 42 44 46 48 49 51
12 12 13 13 14 15 16 18 19 20 21 21 22 24 24 24 24 24 25 26 27 26 25 25 25 25 24 25 26 28 29 30 31 33 35 36 38 39 41 43 45 47 49 50
12 12 12 13 13 14 15 16 17 18 19 20 20 20 21 23 22 21 22 23 23 23 24 24 25 24 25 26 27 28 29 30 31 32 33 35 36 38 40 42 44 45 46 45
13 13 14 14 13 14 14 14 15 16 17 17 16 17 17 17 17 18 20 21 22 22 22 23 23 24 25 25 26 27 28 29 30 31 32 33 34 36 38 39 41 41 41 40
14 14 14 14 14 13 13 13 13 14 14 14 14 15 16 17 18 18 19 19 19 20 20 21 22 23 24 24 25 26 27 27 28 29 30 31 32 33 35 35 36 35 34 34
14 14 15 14 13 13 13 13 13 13 13 13 14 15 15 15 16 16 16 17 17 18 19 20 21 21 21 22 23 23 24 25 26 27 28 29 29 30 29 29 29 29 29 28
15 15 15 14 13 13 13 13 13 13 13 13 13 13 14 14 14 14 14 15 16 17 18 18 19 20 20 20 21 22 22 23 25 25 26 26 26 26 26 25 25 25 25 25
16 16 15 14 14 14 14 13 13 12 12 13 13 13 13 12 12 13 14 14 15 16 16 17 18 18 18 18 19 20 22 23 23 24 24 23 23 23 23 23 23 22 22 21
16 16 16 15 14 14 13 13 12 11 11 12 12 12 12 12 12 12 13 13 14 14 15 16 16 16 17 17 19 20 21 21 22 21 21 21 21 21 21 20 20 19 19 18
16 17 16 16 15 14 13 13 12 12 12 11 11 11 11 11 11 12 13 13 14 14 14 14 15 15 16 17 18 19 19 19 19 19 18 18 18 17 17 17 17 16 16 15
17 17 16 16 15 14 14 13 13 12 11 11 10 10 10 11 11 12 12 12 13 13 13 13 14 14 14 15 16 17 17 17 17 16 16 15 15 15 15 14 13 13 12 12
17 17 16 15 14 14 13 13 12 12 11 10 9 9 9 10 10 10 11 11 12 12 12 13 13 13 14 14 15 15 15 14 14 13 13 13 13 13 12 12 11 10 10 10
17 16 15 15 14 13 13 13 12 12 10 10 9 9 9 9 9 10 10 11 11 11 12 12 12 12 13 13 13 12 12 12 11 11 11 11 11 10 10 9 9 9 9 10
17 16 15 14 13 13 13 13 12 11 11 10 9 9 9 9 9 10 10 10 11 11 11 11 11 11 11 11 11 10 10 10 10 10 10 10 9 9 9 9 9 8 9 9
16 15 15 14 13 13 13 12 11 11 11 10 9 9 10 10 10 10 10 10 10 11 11 10 10 10 10 10 9 9 9 9 9 9 9 9 8 8 8 8 8 8 9 9
15 15 14 14 13 12 12 11 11 11 10 10 10 10 10 10 10 11 11 11 11 12 11 10 10 10 9 9 8 8 8 8 8 8 8 8 8 7 7 8 8 8 9 9
15 15 14 13 13 12 12 11 10 10 10 10 10 10 10 10 11 12 12 12 12 12 12 12 11 10 9 8 8 7 7 7 8 8 8 7 7 7 7 8 8 8 9 9
14 14 13 13 12 12 12 11 10 9 9 10 10 10 10 11 12 13 13 13 13 13 13 13 12 11 10 9 8 7 7 7 8 8 8 7 7 7 7 7 8 8 9 9
13 13 12 12 11 11 11 10 10 9 9 9 10 10 10 11 12 13 14 14 14 14 14 14 14 13 12 10 9 8 8 8 8 9 8 8 8 8 8 8 8 9 9 10
12 12 11 11 10 10 10 10 9 9 9 9 9 10 10 11 12 13 14 14 14 15 15 15 15 14 13 12 11 10 9 9 9 9 9 9 9 9 9 9 9 9 10 10
11 11 10 10 10 10 9 9 9 9 8 8 8 9 10 10 11 12 13 14 14 15 15 16 16 16 15 14 13 12 11 10 10 10 10 9 9 10 10 10 10 10 10 10
10 10 9 9 9 9 9 8 8 8 8 7 7 8 9 9 10 11 12 13 13 14 15 15 16 16 15 15 14 13 12 11 11 11 10 10 10 10 10 11 11 11 11 11
9 9 8 8 8 8 8 8 7 7 7 6 6 6 7 8 9 10 11 11 12 13 14 15 15 15 15 15 15 14 13 13 12 12 12 11 11 11 11 11 11 11 11 12
8 8 8 7 7 8 8 7 6 6 6 5 5 5 6 7 8 9 9 10 11 12 13 13 14 15 15 15 15 14 13 13 12 12 12 11 11 11 11 11 11 11 11 11
8 8 7 7 7 7 7 7 6 5 5 5 4 4 5 5 6 7 8 9 9 10 11 12 13 13 13 13 13 13 13 13 12 12 12 11 11 11 11 11 11 11 11 11

GEFSNGP_500_meanwind_084.txt.gz
Wind_Speed
7 8 9 10 11 13 14 16 18 20 22 23 24 25 26 26 27 28 29 30 31 31 32 33 34 34 34 35 35 35 36 36 37 38 38 38 38 38 38 38 39 40 41 42
7 8 10 10 12 13 15 16 18 20 21 22 23 24 24 25 26 26 27 28 28 29 30 31 32 32 32 33 33 33 33 33 34 34 34 34 34 35 36 37 37 38 39 40
8 9 10 11 12 14 15 16 18 19 20 21 22 23 24 25 25 26 26 26 27 27 28 29 29 29 30 30 29 30 30 30 30 30 31 32 33 33 34 35 35 36 37 37
9 10 10 12 12 13 15 16 17 18 19 20 20 21 22 23 23 23 24 24 24 24 25 26 27 27 26 26 26 26 27 27 27 28 30 31 32 32 33 33 34 34 34 33
10 11 11 12 12 12 13 13 13 15 17 18 19 20 20 20 20 21 22 22 22 23 23 23 23 23 23 23 24 24 25 26 26 27 28 29 29 30 30 30 30 30 31 31
11 11 12 12 12 11 11 11 13 14 15 16 17 17 18 17 18 19 20 20 20 20 20 21 20 20 21 22 22 23 24 24 25 25 26 26 26 27 28 28 28 28 28 28
13 12 12 13 12 11 11 13 13 13 13 14 14 15 16 15 15 16 16 17 17 17 18 19 20 20 20 21 21 22 22 22 23 23 24 24 24 25 26 26 26 26 26 26
14 13 13 13 13 12 12 13 13 12 12 13 13 13 13 13 12 13 13 14 15 15 16 17 18 18 18 19 19 20 20 20 21 21 22 22 23 23 23 23 23 23 23 23
14 14 14 14 14 13 13 13 13 12 12 12 12 12 12 11 11 11 12 13 14 14 15 16 17 17 17 18 18 18 18 19 20 20 20 21 21 21 21 21 21 21 21 20
15 15 15 15 14 14 13 13 12 12 12 12 12 12 11 11 11 11 11 12 13 14 15 16 16 16 17 17 16 16 17 17 18 19 19 19 19 19 19 19 18 18 17 17
15 15 15 15 14 14 13 12 12 12 12 12 11 11 10 10 10 10 11 11 12 13 14 15 15 15 14 14 14 15 15 16 16 16 16 16 17 17 17 16 15 15 14 13
16 16 15 15 14 14 13 12 12 12 12 11 11 11 10 10 10 10 10 10 11 11 12 12 13 13 13 13 14 14 14 14 14 14 14 14 14 14 14 13 12 11 11 10
15 16 15 15 14 14 14 13 12 12 12 12 11 10 10 9 9 9 10 10 10 10 11 11 11 11 11 11 12 12 12 12 12 12 12 12 12 11 11 10 9 9 8 7
15 15 15 15 14 14 14 13 13 12 12 11 11 10 9 9 9 9 9 10 10 10 10 10 10 10 10 9 10 10 10 10 10 10 10 9 9 9 8 8 7 6 5 6
14 15 15 15 14 14 13 13 13 12 12 11 10 9 9 9 9 9 9 9 9 10 9 9 9 9 9 9 9 8 8 8 8 8 8 7 7 7 7 6 5 5 5 6
14 14 15 15 14 14 13 13 12 12 11 10 10 10 10 10 10 10 9 9 9 9 9 9 9 8 9 8 8 7 7 7 7 7 7 7 6 6 6 5 5 5 5 6
13 14 14 15 14 14 13 12 11 11 10 10 10 10 11 11 10 10 10 10 10 10 10 9 9 8 7 7 7 6 6 6 6 6 6 6 6 6 5 5 5 5 5 6
12 13 14 14 13 13 13 12 11 11 10 10 10 11 11 11 11 11 11 11 11 11 11 10 9 8 7 6 6 6 6 6 6 6 6 6 6 5 5 5 5 6 6 6
12 12 13 13 13 12 12 11 11 10 10 10 10 11 11 11 11 11 11 12 12 12 11 11 10 9 7 6 5 5 6 6 6 7 6 6 6 6 6 6 6 6 6 6
10 11 12 12 12 11 11 11 11 10 10 10 10 11 11 12 12 12 12 12 12 12 12 12 11 10 9 7 6 6 6 7 7 7 7 7 7 7 6 6 6 6 6 6
9 10 11 11 11 11 11 10 10 10 10 10 10 10 11 12 12 13 13 13 13 13 13 13 12 12 11 10 8 8 7 7 7 7 7 7 7 7 7 7 7 7 7 7
8 9 10 10 10 10 10 10 10 10 10 10 10 10 11 12 12 13 14 14 13 13 13 14 14 13 12 11 10 10 9 8 8 8 7 7 7 7 7 7 7 7 7 7
8 8 9 9 9 9 9 9 9 9 9 9 9 10 10 11 12 12 13 13 13 14 14 14 14 14 13 12 11 11 10 10 9 9 9 9 9 9 8 8 8 8 8 8
7 7 8 8 8 8 8 9 9 9 9 9 9 9 9 10 11 12 12 12 13 13 13 14 14 14 14 13 12 12 11 11 10 10 9 9 9 9 9 8 8 8 8 8
7 7 7 7 7 7 8 8 8 8 8 8 8 8 8 8 9 11 11 11 12 12 13 13 13 14 14 14 13 12 11 11 10 10 9 9 8 8 8 8 8 8 8 9
7 7 7 7 7 7 7 7 7 7 7 7 7 7 7 8 8 9 10 10 10 11 12 12 13 13 13 13 13 13 12 11 10 10 9 8 8 8 8 8 8 8 8 8
8 7 7 7 6 6 6 6 6 6 6 6 6 6 6 6 7 7 8 9 9 10 10 11 12 12 12 12 12 12 12 12 11 10 9 8 8 8 8 8 8 8 8 8